Regional Weather Roundup
Issued by NWS

Home | Current Version | Previous Version | Text Only | Print | Product List | Glossary On
Versions: 1 2 3 4 5 6 7 8 9 10 11 12 13 14 15 16 17 18 19 20 21 22 23 24 25 26 27 28 29 30 31 32 33 34 35 36 37 38 39 40 41 42 43 44 45 46 47 48 49 50
000
ASUS43 KDTX 051610
RWRMI
MICHIGAN HOURLY REGIONAL WEATHER ROUNDUP
NATIONAL WEATHER SERVICE DETROIT/PONTIAC MI
1200 PM EDT SUN JUL 05 2015

NOTE: "FAIR" INDICATES FEW OR NO CLOUDS BELOW 12,000 FEET WITH NO
SIGNIFICANT WEATHER AND/OR OBSTRUCTION TO VISIBILITY.

MIZ047>049-052>055-059>063-066>070-074>076-081>083-051700-
SOUTHEAST LOWER MICHIGAN

CITY           SKY/WX    TMP DP  RH WIND       PRES   REMARKS
ADRIAN         MOSUNNY   77  57  50 SW3       30.14S
ALMA           SUNNY     76  61  60 CALM      30.12S
ANN ARBOR      SUNNY     77  60  55 SW5       30.13S
BAD AXE        SUNNY     77  64  63 W5        30.13S
CARO           SUNNY     78  63  60 W6        30.12S
DETROIT CITY   SUNNY     77  57  50 S7        30.13F
DETROIT        MOSUNNY   78  57  48 VRB5      30.13F
FLINT          SUNNY     79  60  52 W6        30.13S
GROSSE ILE     MOSUNNY   75  59  57 SE5       30.13S
HILLSDALE      SUNNY     77  59  53 S3        30.14S
HOWELL         SUNNY     78  58  50 S6        30.14S

CITY           SKY/WX    TMP DP  RH WIND       PRES   REMARKS
JACKSON        SUNNY     77  61  57 SW7       30.13F
LAMBERTVILLE   MOSUNNY   78  57  47 E3        30.13S
LANSING        SUNNY     78  60  53 SW9       30.13S
LAPEER         FAIR      78  56  47 SW6       30.14S
MASON          SUNNY     74  59  57 CALM      30.13F
MONROE         MOSUNNY   77  59  53 SE3       30.12S
MT. CLEMENS    SUNNY     80  60  51 S6        30.12S
PONTIAC        MOSUNNY   77  58  51 SW8       30.13S
PORT HOPE        N/A     69  61  75 NW3       30.12R
PORT HURON     SUNNY     77  61  57 S5        30.14R
TRI CITIES     SUNNY     77  61  57 SW7       30.12S
MIDLAND        FAIR      77  60  55 S3        30.10F
TROY           SUNNY     79  57  46 SW6       30.15S
SAGINAW HB     SUNNY     77  61  57 SW7       30.11S
$$
MIZ043>046-050>051-056>058-064>065-071>073-077>080-051700-
SOUTHWEST LOWER MICHIGAN

CITY           SKY/WX    TMP DP  RH WIND       PRES   REMARKS
BATTLE CREEK   SUNNY     78  62  57 SW7       30.13F
BENTON HARBOR  MOSUNNY   79  60  52 W7        30.10S
BIG RAPIDS     SUNNY     76  57  51 S3        30.11S
COLDWATER      SUNNY     76  56  49 CALM      30.13S
FREMONT        FAIR      76  53  45 CALM      30.10S
HOLLAND        SUNNY     79  62  56 W6        30.11S
GRAND RAPIDS   SUNNY     77  60  55 SW5       30.11S
IONIA          FAIR      77  59  54 SW6       30.11S
KALAMAZOO      SUNNY     78  59  51 VRB3      30.12S
LUDINGTON      SUNNY     78  63  59 SW6       30.10R
MARSHALL       SUNNY     77  60  55 S3        30.12S
MOUNT PLEASANT SUNNY     77  59  52 CALM      30.11S
MUSKEGON       SUNNY     78  60  53 S8        30.10S
SOUTH HAVEN    SUNNY     78  59  52 W5        30.10S
$$
MIZ016>042-051700-
NORTHERN LOWER MICHIGAN

CITY           SKY/WX    TMP DP  RH WIND       PRES   REMARKS
ALPENA         SUNNY     79  56  45 VRB3      30.10F
BEAVER ISLAND  SUNNY     75  59  57 SW7       30.06S
BELLAIRE       SUNNY     77  60  54 SW7       30.08S
CADILLAC       SUNNY     77  61  56 SW6       30.11R
CHARLEVOIX     SUNNY     78  61  55 SW9       30.10R
FRANKFORT      SUNNY     77  57  49 SW9       30.08S
GAYLORD        SUNNY     76  60  57 SW8       30.11S
GRAYLING       SUNNY     78  60  54 SW6       30.12R
HARBOR SPRINGS SUNNY     74  61  63 W3        30.08S
HOUGHTON LAKE  SUNNY     75  60  59 SW6       30.12S
MANISTEE       SUNNY     75  63  64 SW6       30.09S
OSCODA         SUNNY     72  56  57 E7        30.11F
PELLSTON       SUNNY     77  62  59 SW8       30.08R
ROGERS CITY    SUNNY     76  59  56 CALM      30.10S
TRAVERSE CITY  MOSUNNY   80  61  52 SW7       30.06F
$$
MIZ007>008-015-051700-
EASTERN UPPER MICHIGAN

CITY           SKY/WX    TMP DP  RH WIND       PRES   REMARKS
KINROSS        SUNNY     75  61  60 S8        30.06S
MACKINAC ISLAN SUNNY     72  61  68 CALM      30.07S
NEWBERRY       SUNNY     72  62  71 S13G18    30.04R
S. S. MARIE    SUNNY     72  61  68 E5        30.05F
MUNISING         N/A     80  66  62 S12G18    29.99R
$$
MIZ004>006-011>014-085-051700-
CENTRAL UPPER MICHIGAN

CITY           SKY/WX    TMP DP  RH WIND       PRES   REMARKS
MANISTIQUE     SUNNY     63  56  79 S13G18    30.04S
ESCANABA       SUNNY     72  64  78 S12       30.01F
MENOMINEE      SUNNY     77  63  61 SW6       30.03R
SAWYER-GWINN   MOSUNNY   77  63  61 SW15      30.00S
$$
MIZ001>003-009>011-084-051700-
WESTERN UPPER MICHIGAN

CITY           SKY/WX    TMP DP  RH WIND       PRES   REMARKS
IRON MOUNTAIN  PTSUNNY   80  63  55 SW13G21   30.00F
HOUGHTON       SUNNY     78  64  61 S9        29.95R
COPPER HARBOR    N/A     78  64  61 SW8       29.93S
IRONWOOD       MOSUNNY   75  63  64 S14G21    29.92S
$$

ABBREVIATIONS USED IN REMARKS
   TC - TEMPERATURE IN CELSIUS
  WCI - WIND CHILL INDEX
   HX - HEAT INDEX
  VSB - VISIBILITY



USA.gov is the U.S. government's official web portal to all federal, state and local government web resources and services.